Weather History for Fayetteville, NC

Change the Weather History Date:

Friday, February 15, 2013

  Actual Average Record
Temperature  
Mean Temperature 47 °F 47 °F  
Max Temperature 63 °F 59 °F 81 °F (1918)
Min Temperature 31 °F 35 °F 12 °F (1943)
Degree Days  
Heating Degree Days 18 18  
Month to date heating degree days 270 285  
Since 1 July heating degree days 1819 2011  
Cooling Degree Days 0 0  
Month to date cooling degree days 0 0  
Year to date cooling degree days 5 2  
Moisture  
Dew Point 32 °F    
Average Humidity 64    
Maximum Humidity 100    
Minimum Humidity 27    
Precipitation  
Precipitation 0.00 in 0.11 in 1.46 in (1941)
Month to date precipitation 1.82 1.41  
Year to date precipitation 3.62 4.71  
Sea Level Pressure  
Sea Level Pressure 30.01 in    
Wind  
Wind Speed 4 mph (SW)    
Max Wind Speed 12 mph    
Max Gust Speed 14 mph    
Visibility 9 miles    
Events      
T = Trace of Precipitation, MM = Missing Value Source: NWS Daily Summary

Daily Weather History Graph

Daily Weather History Graph

Search for Another Location

Airport:

Trip Planner

Search our weather history database for the weather conditions in past years. The results will help you decide how hot, cold, wet, or windy it might be!

Date:

Astronomy

Feb. 15, 2013 Rise Set
Actual Time 7:01 AM EST 5:58 PM EST
Civil Twilight 6:35 AM EST 6:24 PM EST
Nautical Twilight 6:05 AM EST 6:54 PM EST
Astronomical Twilight 5:36 AM EST 7:23 PM EST
Moon 9:51 AM EST (2/15) 11:41 PM EST (2/15)
Length of Visible Light 11h 49m
Length of Day
10h 57m
Waxing Crescent, 30% of the Moon is Illuminated
Feb 15
Waxing Crescent
Feb 17
First Quarter
Feb 25
Full
Mar 4
Last Quarter
Mar 11
New

Hourly Weather History & Observations

Time (EST) Temp. Windchill Dew Point Humidity Pressure Visibility Wind Dir Wind Speed Gust Speed Precip Events Conditions
12:53 AM 36.0 °F 32.1 °F 33.1 °F 89% 30.06 in 10.0 mi West 4.6 mph - N/A   Clear
1:53 AM 34.0 °F - 32.0 °F 92% 30.05 in 8.0 mi Calm Calm - N/A   Clear
2:53 AM 34.0 °F - 30.9 °F 89% 30.04 in 10.0 mi Calm Calm - N/A   Clear
3:53 AM 30.9 °F 25.2 °F 30.0 °F 96% 30.06 in 6.0 mi SSE 5.8 mph - N/A   Clear
4:53 AM 34.0 °F - 32.0 °F 92% 30.05 in 7.0 mi Calm Calm - N/A   Clear
5:53 AM 33.1 °F - 30.9 °F 92% 30.06 in 9.0 mi Calm Calm - N/A   Clear
6:53 AM 34.0 °F 31.0 °F 30.9 °F 89% 30.06 in 10.0 mi West 3.5 mph - N/A   Clear
7:53 AM 33.1 °F - 32.0 °F 96% 30.08 in 6.0 mi Calm Calm - N/A   Clear
8:53 AM 41.0 °F - 37.0 °F 86% 30.09 in 10.0 mi Calm Calm - N/A   Clear
9:53 AM 48.9 °F - 36.0 °F 61% 30.09 in 10.0 mi Calm Calm - N/A   Clear
10:53 AM 53.1 °F - 36.0 °F 52% 30.08 in 10.0 mi WNW 3.5 mph - N/A   Clear
11:53 AM 59.0 °F - 34.0 °F 39% 30.05 in 10.0 mi Calm Calm - N/A   Clear
12:53 PM 61.0 °F - 27.0 °F 27% 30.02 in 10.0 mi North 4.6 mph - N/A   Clear
1:53 PM 62.1 °F - 28.0 °F 28% 29.99 in 10.0 mi WSW 6.9 mph - N/A   Clear
2:53 PM 63.0 °F - 28.9 °F 28% 29.96 in 10.0 mi Variable 4.6 mph - N/A   Clear
3:53 PM 62.1 °F - 28.9 °F 29% 29.95 in 10.0 mi Variable 6.9 mph - N/A   Clear
4:53 PM 62.1 °F - 30.0 °F 30% 29.94 in 10.0 mi SSW 5.8 mph - N/A   Clear
5:53 PM 57.0 °F - 32.0 °F 39% 29.93 in 10.0 mi SSW 5.8 mph - N/A   Clear
6:53 PM 53.1 °F - 33.1 °F 47% 29.94 in 10.0 mi SSW 5.8 mph - N/A   Clear
7:53 PM 50.0 °F - 34.0 °F 54% 29.95 in 10.0 mi SSW 5.8 mph - N/A   Clear
8:53 PM 46.0 °F 43.9 °F 35.1 °F 66% 29.95 in 10.0 mi SSW 4.6 mph - N/A   Clear
9:53 PM 46.9 °F - 36.0 °F 66% 29.95 in 10.0 mi SSW 6.9 mph - N/A   Clear
10:53 PM 44.1 °F 40.8 °F 36.0 °F 73% 29.95 in 10.0 mi South 5.8 mph - N/A   Clear
11:53 PM 45.0 °F 43.5 °F 36.0 °F 71% 29.93 in 10.0 mi South 3.5 mph - N/A   Clear